This demonstration page uses our WeatherBlox Daily Observations layout. Learn more.

Left ArrowRight Arrow

Hourly Observations for August 16, 2022

Temp ( °F °C ) Dew Point ( °F °C ) Humidity (%) Winds ( mph kmh ) Pressure ( in mb ) Visibility ( mi km ) Precip ( " mm )
12:53 am 00:53 Cloudy 64 17.8 60 15.6 87 87 E 10 17 30.01 1016 10 16 0.00 0.00
1:53 am 01:53 Cloudy 63 17.2 61 16.1 93 93 E 12 19 29.98 1015 10 16 0.00 0.00
2:53 am 02:53 Cloudy 63 17.2 61 16.1 93 93 E 8 13 29.98 1015 8 13 0.00 0.00
3:04 am 03:04 Cloudy 63 17.2 62 16.7 97 97 E 9 15 29.99 1015 7 11 0.00 0.00
3:53 am 03:53 Cloudy with Mist and Fog 63 17.2 62 16.7 97 97 NE 6 9 30.00 1016 5 8 0.00 0.00
4:30 am 04:30 Cloudy with Mist and Fog 63 17.2 62 16.7 97 97 NNE 7 11 30.01 1016 2 3 0.00 0.00
4:41 am 04:41 Cloudy with Mist and Fog 63 17.2 62 16.7 97 97 NNE 9 15 30.01 1016 2 3 0.00 0.00
4:53 am 04:53 Cloudy with Mist and Fog 63 17.2 62 16.7 97 97 NNE 9 15 30.01 1016 2 2 0.00 0.00
5:14 am 05:14 Cloudy with Light Rain 63 17.2 62 16.7 97 97 NE 8 13 30.01 1016 2 3 0.01 0.13
5:33 am 05:33 Cloudy with Mist and Fog 63 17.2 62 16.7 97 97 ENE 13 20 30.00 1016 3 5 0.01 0.13
5:53 am 05:53 Cloudy with Mist and Fog 63 17.2 62 16.7 97 97 ENE 10 17 30.00 1016 4 6 0.01 0.25
6:53 am 06:53 Cloudy with Mist and Fog 61 16.1 60 15.6 97 97 NE 7 11 30.05 1018 5 8 0.00 0.00
7:31 am 07:31 Cloudy with Mist and Fog 61 16.1 60 15.6 97 97 ENE 7 11 30.06 1018 2 3 0.00 0.00
7:53 am 07:53 Cloudy with Mist and Fog 60 15.6 59 15 96 96 ENE 9 15 30.08 1019 2 3 0.00 0.00
8:00 am 08:00 Cloudy with Mist and Fog 60 15.6 59 15 96 96 ENE 9 15 30.08 1018 2 2 0.00 0.00
8:53 am 08:53 Cloudy with Mist and Fog 60 15.6 59 15 96 96 ENE 9 15 30.09 1019 2 3 0.00 0.00
9:08 am 09:08 Cloudy with Mist and Fog 60 15.6 59 15 96 96 ENE 7 11 30.09 1019 3 4 0.00 0.00
9:26 am 09:26 Cloudy with Mist and Fog 60 15.6 59 15 96 96 ENE 12 19 30.09 1019 3 5 0.00 0.00
9:53 am 09:53 Cloudy with Mist and Fog 61 16.1 60 15.6 97 97 NE 9 15 30.09 1019 4 6 0.00 0.00
10:21 am 10:21 Cloudy with Mist and Fog 61 16.1 60 15.6 97 97 NE 8 13 30.07 1018 6 10 0.00 0.00
10:53 am 10:53 Cloudy 63 17.2 61 16.1 93 93 NE 14 22 30.07 1018 10 16 0.00 0.00
11:53 am 11:53 Cloudy 64 17.8 61 16.1 90 90 ENE 9 15 30.08 1019 10 16 0.00 0.00
12:53 pm 12:53 Cloudy with Mist and Fog 64 17.8 62 16.7 93 93 E 9 15 30.09 1019 5 8 0.00 0.00
1:15 pm 13:15 Cloudy with Light Rain 64 17.8 63 17.2 96 96 E 9 15 30.07 1018 2 3 0.01 0.13
1:23 pm 13:23 Cloudy with Light Rain 64 17.8 63 17.2 96 96 E 9 15 30.07 1018 2 3 0.01 0.13
1:53 pm 13:53 Cloudy with Light Rain 65 18.3 63 17.2 93 93 ENE 8 13 30.10 1019 2 3 0.01 0.25
2:16 pm 14:16 Cloudy with Light Rain 65 18.3 63 17.2 93 93 ENE 9 15 30.08 1019 2 3 0.01 0.13
2:25 pm 14:25 Cloudy with Mist and Fog 65 18.3 63 17.2 93 93 ENE 10 17 30.08 1019 2 2 0.01 0.13
2:39 pm 14:39 Cloudy with Light Rain 65 18.3 63 17.2 93 93 NE 9 15 30.09 1019 2 3 0.01 0.25
2:53 pm 14:53 Cloudy with Mist and Fog 65 18.3 63 17.2 93 93 NE 10 17 30.11 1020 2 3 0.01 0.25
3:09 pm 15:09 Cloudy with Light Rain 65 18.3 63 17.2 93 93 ENE 8 13 30.09 1019 2 3 0.01 0.13
3:12 pm 15:12 Cloudy with Mist and Fog 65 18.3 63 17.2 93 93 ENE 10 17 30.09 1019 2 3 0.01 0.13
3:19 pm 15:19 Cloudy with Mist and Fog 65 18.3 63 17.2 93 93 ENE 12 19 30.09 1019 3 5 0.01 0.13
3:28 pm 15:28 Cloudy with Mist and Fog 65 18.3 63 17.2 93 93 ENE 10 17 30.09 1019 3 5 0.01 0.13
3:53 pm 15:53 Cloudy with Light Rain 64 17.8 63 17.2 96 96 ENE 9 15 30.11 1020 3 5 0.01 0.13
4:44 pm 16:44 Cloudy 65 18.3 63 17.2 93 93 E 9 15 30.09 1019 7 11 0.01 0.13
4:53 pm 16:53 Cloudy with Mist and Fog 65 18.3 63 17.2 93 93 E 9 15 30.11 1020 5 8 0.01 0.13
5:08 pm 17:08 Cloudy 65 18.3 63 17.2 93 93 E 9 15 30.08 1019 10 16 0.00 0.00
5:16 pm 17:16 Cloudy with Light Rain 65 18.3 63 17.2 93 93 NE 8 13 30.08 1019 3 5 0.01 0.13
5:37 pm 17:37 Cloudy 65 18.3 64 17.8 97 97 ENE 10 17 30.08 1019 8 13 0.01 0.13
5:53 pm 17:53 Cloudy with Mist and Fog 65 18.3 63 17.2 93 93 ENE 8 13 30.11 1020 6 10 0.01 0.13
6:00 pm 18:00 Cloudy 65 18.3 64 17.8 97 97 ENE 8 13 30.08 1019 10 16 0.00 0.00
6:25 pm 18:25 Cloudy with Mist and Fog 65 18.3 64 17.8 97 97 ENE 8 13 30.08 1019 4 6 0.00 0.00
6:34 pm 18:34 Cloudy 65 18.3 63 17.2 93 93 ENE 9 15 30.08 1019 10 16 0.00 0.00
6:53 pm 18:53 Cloudy 65 18.3 63 17.2 93 93 ENE 7 11 30.11 1020 10 16 0.00 0.00
7:08 pm 19:08 Cloudy 65 18.3 63 17.2 93 93 E 8 13 30.08 1019 9 14 0.00 0.00
7:19 pm 19:19 Cloudy with Mist and Fog 65 18.3 63 17.2 93 93 E 7 11 30.08 1019 3 5 0.00 0.00
7:25 pm 19:25 Cloudy with Mist and Fog 65 18.3 63 17.2 93 93 E 7 11 30.08 1019 3 5 0.00 0.00
7:39 pm 19:39 Cloudy 65 18.3 64 17.8 97 97 ENE 8 13 30.08 1019 9 14 0.00 0.00
7:53 pm 19:53 Cloudy 65 18.3 63 17.2 93 93 ENE 9 15 30.11 1020 9 14 0.00 0.00
8:27 pm 20:27 Cloudy 65 18.3 63 17.2 93 93 E 8 13 30.09 1019 10 16 0.00 0.00
8:41 pm 20:41 Cloudy 65 18.3 63 17.2 93 93 E 5 7 30.09 1019 10 16 0.00 0.00
8:50 pm 20:50 Cloudy 65 18.3 63 17.2 93 93 ENE 3 6 30.12 1020 10 16 0.00 0.00
9:53 pm 21:53 Cloudy 65 18.3 64 17.8 97 97 NE 5 7 30.14 1021 8 13 0.00 0.00
10:53 pm 22:53 Cloudy 65 18.3 63 17.2 93 93 ENE 5 7 30.14 1021 7 11 0.00 0.00
11:53 pm 23:53 Cloudy 65 18.3 63 17.2 93 93 NE 3 6 30.14 1021 7 11 0.00 0.00

Powered by AerisWeather